Simultaneous Nadir Overpasses (SNOs) Predictions

Prediction of SNOs between LANDSAT-8 and METOP-A Satellite Orbit:

Table of predicted SNOs for the next 14.0 days since TLE Epoch: 6/28/2014
Index Date (LANDSAT-8) Time (LANDSAT-8) Lat,Lon (LANDSAT-8) SZA (LANDSAT-8 ) Date (METOP-A) Time (METOP-A) Lat,Lon (METOP-A) SZA (METOP-A ) Distance(km) Time Diff (sec)
1 06/28/2014 08:51:30 -81.09, -93.39 120.13 06/28/2014 08:51:13 -81.10, -93.41 120.14 0.52 17
2 06/28/2014 09:40:55 81.12, 74.71 59.94 06/28/2014 09:41:52 81.12, 74.67 59.96 0.72 57
3 07/01/2014 04:25:47 -81.11, -26.72 119.95 07/01/2014 04:25:38 -81.11, -26.67 119.95 0.83 9
4 07/01/2014 05:15:13 81.11, 141.00 60.07 07/01/2014 05:16:18 81.12, 140.99 60.10 0.62 65
5 07/04/2014 00:00:06 -81.11, 39.74 119.75 07/04/2014 00:00:04 -81.11, 39.66 119.76 1.40 2
6
